Regional Weather Roundup
Issued by NWS

Home | Current Version | Previous Version | Graphics & Text | Print | Product List | Glossary On
Versions: 1 2 3 4 5 6 7 8 9 10 11 12 13 14 15 16 17 18 19 20 21 22 23 24 25 26 27 28 29 30 31 32 33 34 35 36 37 38 39 40 41 42 43 44 45 46 47 48 49 50
000
ASUS43 KLSX 251957
RWRMO

WEATHER SUMMARY FOR MISSOURI
NATIONAL WEATHER SERVICE SPRINGFIELD MO
200 PM CST SAT FEB 25 2017

NOTE: "FAIR" INDICATES FEW OR NO CLOUDS BELOW 12,000 FEET WITH NO
       SIGNIFICANT WEATHER AND/OR OBSTRUCTIONS TO VISIBILITY.
       CURRENT SKY AND/OR WEATHER CONDITIONS ARE NOT AVAILABLE FOR
       CHILLICOTHE AND FARMINGTON.

MOZ001>031-035>038-043-044-053-054-252100-
...NORTHERN AND WESTERN MISSOURI...

CITY           SKY/WX    TMP DP  RH WIND       PRES   REMARKS
KANSAS CTY INT MOSUNNY   39  10  30 VRB5      30.12F
LEE`S SUMMIT   SUNNY     41  10  28 W9        30.12F
ST JOSEPH      SUNNY     36  16  44 MISG      30.13F
CHILLICOTHE      N/A     37  13  37 VRB6      30.13F

$$
MOZ066>068-077>081-088>096-101>105-252100-
...SOUTHWEST MISSOURI...

CITY           SKY/WX    TMP DP  RH WIND       PRES   REMARKS
SPRINGFIELD    SUNNY     43  13  29 MISG      30.13F
JOPLIN         SUNNY     41  14  33 W6        30.17F
BRANSON        SUNNY     41  14  33 N12       30.14F

$$
MOZ032>034-039>042-045>050-055>058-069>072-252100-
...CENTRAL MISSOURI...

CITY           SKY/WX    TMP DP  RH WIND       PRES   REMARKS
COLUMBIA       NOT AVBL
JEFFERSON CITY SUNNY     39  11  31 W20       30.12F WCI  29
ROLLA          FLURRIES  38   9  30 NW14G23   30.09S WCI  30
SEDALIA        SUNNY     41   9  26 NW9G21    30.13F
WARRENSBURG    SUNNY     39   9  28 W7        30.13F

$$
MOZ051-052-059>065-252100-
...EAST CENTRAL MISSOURI...

CITY           SKY/WX    TMP DP  RH WIND       PRES   REMARKS
ST LOUIS INTL  MOSUNNY   40  15  36 NW16G29   30.08S

$$
MOZ072>076-082>087-097>100-106>115-252100-
...SOUTH CENTRAL AND SOUTHEAST MISSOURI...

CITY           SKY/WX    TMP DP  RH WIND       PRES   REMARKS
CAPE GIRARDEAU SUNNY     43  14  31 NW12      30.08F
POPLAR BLUFF   SUNNY     44  15  31 W12       30.10S
WEST PLAINS    SUNNY     44  14  29 NW15G23   30.11F

$$



USA.gov is the U.S. government's official web portal to all federal, state and local government web resources and services.